x

Aultbea (03034) Weather Station

1:00am - Sat 28th Feb 2015 All times are GMT.

  • Wind
    16mph, 30mph gusts
  • 空気 Temp 44°f
  • Sea Pressure 995mb
  • Aultbea
  • Aultbea

More Historic Weather Station data

Upgrade to MSW Pro to gain access to the past 30 days of data for over 8000 Wavebouys and Weather Stations around the globe.

Join Pro

Comparision Forecast

View Surf forecast
   
Sat 02/28 1:00am 16 30 mph 995mb 44f
12:00am 18 51 mph 995mb 44f
Fri 02/27 11:00pm 32 52 mph 994mb 44f
10:00pm 40 55 mph 995mb 44f
9:00pm 36 53 mph 996mb 43f
8:00pm 37 51 mph 998mb 43f
7:00pm 24 40 mph 999mb 42f
6:00pm 25 39 mph 1001mb 43f
5:00pm 19 37 mph 1002mb 42f
4:00pm 22 37 mph 1003mb 43f
3:00pm 25 37 mph 1004mb 44f
2:00pm 23 31 mph 1005mb 44f
1:00pm 24 37 mph 1006mb 43f
12:00pm 21 30 mph 1005mb 46f
11:00am 17 30 mph 1006mb 44f
10:00am 16 29 mph 1005mb 44f
9:00am 15
mph
1005mb 43f
8:00am 21 37 mph 1005mb 41f
7:00am 22 33 mph 1005mb 43f
6:00am 21 34 mph 1004mb 42f
5:00am 21 32 mph 1003mb 42f
4:00am 19 33 mph 1003mb 42f
3:00am 23 36 mph 1003mb 41f
2:00am 19 30 mph 1002mb 42f
1:00am 16 38 mph 1001mb 40f
12:00am 25 34 mph 1001mb 41f
Thu 02/26 11:00pm 24 37 mph 1001mb 41f
10:00pm 23 34 mph 1000mb 39f
9:00pm 22 38 mph 1000mb 37f
8:00pm 21 34 mph 1000mb 37f
7:00pm 24 36 mph 1000mb 38f
6:00pm 26 40 mph 999mb 40f
5:00pm 22 36 mph 999mb 36f
4:00pm 25 39 mph 999mb 41f
3:00pm 24 41 mph 998mb 39f
2:00pm 21 37 mph 998mb 40f
1:00pm 26 39 mph - 38f
12:00pm 24 40 mph - 36f
11:00am 24 40 mph - 40f
10:00am 22 38 mph 996mb 42f
9:00am 22 39 mph 996mb 40f
8:00am 22 34 mph 996mb 41f
7:00am 24 43 mph 996mb 38f
6:00am 19 43 mph 994mb 42f
5:00am 21 32 mph 993mb 45f
4:00am 23 34 mph 993mb 44f
3:00am 23 43 mph 993mb 46f
2:00am 25 40 mph 992mb 49f
1:00am 28 39 mph 993mb 49f
12:00am 26 40 mph 993mb 49f
Wed 02/25 11:00pm 28 43 mph 993mb 48f
10:00pm 29 44 mph 994mb 49f
9:00pm 33 48 mph 995mb 50f
8:00pm 28 45 mph 997mb 50f
7:00pm 30 43 mph 998mb 48f
6:00pm 28 39 mph 998mb 48f
5:00pm 28 39 mph 1000mb 47f
4:00pm 21 30 mph 1000mb 46f
3:00pm 13
mph
1002mb 44f
2:00pm 17
mph
1004mb 44f
1:00pm 21 29 mph 1006mb 43f
12:00pm 14
mph
1006mb 44f
11:00am 11
mph
1006mb 44f
10:00am 8
mph
1006mb 42f
9:00am 13
mph
1006mb 41f
8:00am 13
mph
1006mb 40f
7:00am 11
mph
1006mb 39f
6:00am 7
mph
1005mb 39f
5:00am 8
mph
1004mb 39f
4:00am 8
mph
1003mb 39f
3:00am 7
mph
1003mb 38f
2:00am 13
mph
1002mb 39f
1:00am 15 29 mph 1001mb 37f
12:00am 13
mph
1000mb 38f
Tue 02/24 11:00pm 10
mph
1000mb 39f
10:00pm 15
mph
999mb 39f
9:00pm 13
mph
999mb 38f
8:00pm 11 40 mph 998mb 37f
7:00pm 10
mph
997mb 39f
6:00pm 22 38 mph 996mb 37f
5:00pm 18 31 mph 995mb 41f
4:00pm 17 38 mph 994mb 40f
3:00pm 23 36 mph 993mb 43f
2:00pm 26 36 mph 992mb 43f
1:00pm 23 36 mph 990mb 41f
12:00pm 19 36 mph 989mb 43f
11:00am 24 38 mph 988mb 43f
10:00am 19 41 mph 986mb 42f
9:00am 28 46 mph 985mb 41f
8:00am 24 49 mph 983mb 39f
7:00am 24 53 mph 981mb 41f
6:00am 31 56 mph 979mb 41f
5:00am 33 56 mph 977mb 41f
4:00am 29 46 mph 976mb 42f
3:00am 15 37 mph 977mb 42f